FW1036 Weather Reports


time (UTC)temp
C
wind
direction
speed
KPH
gust
KPH
rain 1hr
cm
rain 24hr
cm
rain mn
cm
humidity
%
barometer
mb
20260905024550 18 22 4.8 12.9 0.00 0.03 0.03 88 1013.6
20260905023051 18 33 8.0 12.9 0.00 0.03 0.03 88 1013.5
20260905021550 18 48 4.8 9.7 0.00 0.03 0.03 88 1013.5
20260905014548 18 5 4.8 8.0 0.00 0.03 0.03 86 1013.9
20260905013053 18 360 3.2 6.4 0.00 0.03 0.03 87 1013.9
20260905011625 18 45 3.2 4.8 0.00 0.03 0.03 88 1013.8
20260905010047 18 45 0.0 4.8 0.00 0.03 0.03 88 1013.7
20260905004547 18 45 3.2 4.8 0.00 0.03 0.03 87 1013.6
20260905003047 18 5 0.0 1.6 0.00 0.03 0.03 86 1013.6
20260905001556 18 5 0.0 3.2 0.00 0.03 0.03 86 1013.4
20260905000046 18 49 3.2 8.0 0.00 0.03 0.03 84 1013.2
20260904234544 19 38 4.8 14.5 0.00 0.03 0.03 81 1013.2
20260904233045 20 42 9.7 17.7 0.00 0.03 0.03 79 1012.8
20260904231542 20 51 9.7 17.7 0.00 0.03 0.03 79 1012.8
20260904230042 20 46 11.3 16.1 0.00 0.03 0.03 80 1012.9
20260904224546 20 39 8.0 17.7 0.00 0.03 0.03 80 1012.8
20260904223042 20 49 9.7 14.5 0.00 0.03 0.03 81 1012.9
20260904221541 20 69 8.0 17.7 0.00 0.03 0.03 81 1012.7
20260904220040 20 60 11.3 24.1 0.00 0.03 0.03 80 1012.6
20260904214538 21 55 16.1 24.1 0.00 0.03 0.03 79 1012.3
20260904213039 20 55 11.3 20.9 0.00 0.03 0.03 84 1012.4
20260904211538 20 65 14.5 24.1 0.00 0.03 0.03 85 1012.4
20260904210037 20 38 16.1 25.7 0.00 0.03 0.03 86 1012.3
20260904204537 20 39 14.5 25.7 0.00 0.13 0.03 86 1012.1
20260904203037 21 44 17.7 24.1 0.00 0.13 0.03 87 1012.2
20260904201535 21 69 9.7 19.3 0.00 0.13 0.03 88 1012.3
20260904200035 21 55 14.5 19.3 0.00 0.13 0.03 88 1012.4
20260904194539 21 51 9.7 17.7 0.00 0.86 0.03 88 1012.5
20260904193033 21 74 14.5 19.3 0.00 0.86 0.03 87 1012.2
20260904191533 22 63 12.9 19.3 0.00 0.86 0.03 87 1012.2
20260904190032 22 57 14.5 19.3 0.00 0.86 0.03 86 1012.4
20260904184534 22 59 12.9 19.3 0.00 0.91 0.03 86 1012.5
20260904183030 22 86 6.4 12.9 0.00 0.91 0.03 84 1012.4
20260904181543 23 82 3.2 11.3 0.00 0.91 0.03 82 1012.2
20260904180026 23 42 0.0 11.3 0.00 0.91 0.03 82 1012.5
20260904174525 23 121 3.2 8.0 0.00 0.91 0.03 83 1012.5
20260904173023 23 106 4.8 9.7 0.00 0.91 0.03 82 1012.8
20260904171521 22 163 6.4 11.3 0.00 0.91 0.03 83 1013.0
20260904170020 22 167 6.4 9.7 0.00 0.91 0.03 83 1013.0
20260904164519 22 164 4.8 12.9 0.00 0.91 0.03 83 1013.3
20260904163016 22 144 4.8 9.7 0.00 0.91 0.03 85 1013.5
20260904161513 21 118 6.4 11.3 0.00 0.91 0.03 87 1013.6
20260904160014 21 192 4.8 9.7 0.00 0.91 0.03 87 1013.8
20260904154508 21 155 3.2 8.0 0.00 0.91 0.03 89 1014.0
20260904153013 20 156 0.0 6.4 0.00 0.91 0.03 90 1014.5
20260904151503 20 158 3.2 6.4 0.00 0.91 0.03 91 1014.5
20260904150003 20 170 1.6 11.3 0.00 0.91 0.03 92 1014.4
20260904144600 20 120 0.0 9.7 0.00 0.91 0.03 92 1014.4
20260904143124 20 150 0.0 9.7 0.00 0.91 0.03 92 1014.3
20260904141605 19 236 1.6 3.2 0.00 0.91 0.03 93 1014.4
20260904140054 19 236 0.0 1.6 0.00 0.91 0.03 93 1014.1
20260904134559 19 236 0.0 4.8 0.00 0.91 0.03 93 1014.3
20260904133051 19 215 0.0 1.6 0.03 0.91 0.03 93 1014.2
20260904131550 19 215 0.0 4.8 0.03 0.91 0.03 93 1014.4
20260904130046 18 171 0.0 4.8 0.03 0.91 0.03 92 1014.1
20260904124543 18 63 0.0 3.2 0.03 0.91 0.03 92 1013.7
20260904123041 18 63 0.0 3.2 0.00 0.89 0.00 92 1013.7
20260904121541 18 63 1.6 3.2 0.00 0.89 0.00 92 1013.9
20260904120047 18 63 3.2 6.4 0.00 0.89 0.00 93 1013.7
20260904114538 18 63 1.6 6.4 0.00 0.89 0.00 93 1013.5
20260904113043 18 63 3.2 4.8 0.00 0.89 0.00 93 1013.4
20260904111538 18 63 1.6 3.2 0.00 0.89 0.00 93 1013.2
20260904110037 18 63 1.6 6.4 0.00 0.89 0.00 93 1012.8
20260904104549 18 42 3.2 6.4 0.00 0.89 0.00 93 1012.7
20260904103035 17 42 3.2 9.7 0.00 0.89 0.00 94 1012.5
20260904101534 18 166 0.0 0.0 0.00 0.89 0.00 93 1012.7
20260904100037 18 5 0.0 0.0 0.00 0.89 0.00 93 1012.4
20260904094534 18 5 0.0 0.0 0.00 0.89 0.00 93 1012.8
20260904093031 18 5 0.0 0.0 0.00 0.89 0.00 93 1012.9
20260904091530 18 5 0.0 0.0 0.00 0.89 0.00 93 1012.9
20260904090030 18 5 0.0 0.0 0.00 0.89 0.00 93 1012.9
20260904084535 18 5 0.0 0.0 0.00 0.89 0.00 93 1012.9
20260904083034 18 5 0.0 0.0 0.00 0.89 0.00 93 1012.8
20260904081527 18 5 0.0 0.0 0.00 0.89 0.00 93 1012.9
20260904080033 18 5 0.0 0.0 0.00 0.89 0.00 93 1013.2
20260904074525 18 5 0.0 0.0 0.00 0.89 0.00 93 1012.8
20260904073024 18 5 0.0 0.0 0.00 0.89 0.00 93 1012.6
20260904071522 18 5 0.0 0.0 0.00 0.89 0.00 93 1012.9
20260904070019 18 5 0.0 0.0 0.00 0.89 0.00 93 1013.3
20260904064525 18 5 0.0 0.0 0.00 0.89 0.00 93 1013.7
20260904063021 18 5 0.0 0.0 0.00 0.89 0.00 93 1013.7
20260904061516 18 5 0.0 0.0 0.00 0.89 0.00 93 1013.7
20260904060015 18 5 0.0 1.6 0.00 0.89 0.00 93 1013.6
20260904054515 18 5 0.0 0.0 0.00 0.89 0.00 93 1013.6
20260904053017 18 5 0.0 0.0 0.00 0.89 0.00 93 1013.7
20260904051513 18 5 0.0 3.2 0.00 0.89 0.00 93 1013.9
20260904050008 18 5 0.0 3.2 0.00 0.89 0.00 93 1013.8
20260904044506 18 5 0.0 0.0 0.00 0.89 0.00 93 1014.1
20260904043004 18 5 0.0 3.2 0.00 0.89 0.00 93 1014.0
20260904041505 18 5 0.0 1.6 0.00 0.89 0.00 93 1014.0
20260904040002 18 5 0.0 1.6 0.00 0.89 0.89 93 1013.9
20260904034600 18 5 0.0 0.0 0.00 0.89 0.89 93 1013.8
20260904034500 18 5 0.0 0.0 0.00 0.89 0.89 93 1013.7
20260904033102 18 5 0.0 0.0 0.00 0.89 0.89 93 1013.8
20260904031600 18 5 0.0 0.0 0.00 0.89 0.89 93 1013.6
20260904030059 18 5 0.0 0.0 0.00 0.89 0.89 93 1013.4